www.pogodaiklimat.ru

Погода и климат >> Архив погоды >> Россия >> Ростовская область >> Ремонтное


АРХИВ ПОГОДЫ в Ремонтном

Время (UTC), дата Ветер
(напр.,м/с)
 
Видим.   Явления Облачность Т
(С)
Тd
(С)
f
(%)
Тe
(С)
Тes
(С)
Комфортность P
(гПа)
Po
(гПа)
Тmin
(С)
Tmax
(С)
R
(мм)
R24
(мм)
S
(см)
18 19.05 С 1 10 км 9/0
[Ci fib]
+18.6 +9.6 56 +20 +20 1013.4 1001.0
21 19.05 СЗ 1 10 км 10/0
[Ci fib]
+15.0 +8.7 66 +16 +16 1013.2 1000.6
00 20.05 СЗ 1 10 км 9/0
[Ci fib]
+12.5 +7.6 72 +13 +13 1014.7 1001.9
03 20.05 штиль 0 10 км 6/0
[Ci fib]
+15.1 +6.9 58 +15 +17 1015.6 1002.9 +12.1
06 20.05 СВ 3 20 км 1/0
[Ci fib]
+22.1 +5.8 35 +23 +32 комфорт 1016.4 1004.0
09 20.05 СВ 2 20 км 3/0
[Ci fib]
+24.3 +3.6 26 +24 +41 комфорт 1017.0 1004.7
12 20.05 С 3 20 км 8/0
[Ci fib]
+24.8 +3.4 25 +24 +32 комфорт 1017.0 1004.7
15 20.05 СВ 3 20 км 10/0
[Ci fib]
+22.8 +3.0 27 +22 +24 комфорт 1017.4 1005.0 +24.9
18 20.05 В 4 20 км 3/0
[Ci fib]
+15.5 +0.8 37 +15 +15 1019.3 1006.6
21 20.05 ЮВ 2 10 км ясно +12.3 +0.1 43 +12 +12 1020.1 1007.2
00 21.05 ЮВ 1 10 км ясно +7.7 +3.4 74 +7 +7 1020.7 1007.6
03 21.05 ЮВ 1 10 км 9/0
[Ci fib]
+9.7 +3.3 64 +9 +11 1021.7 1008.8 +6.7
06 21.05 ЮВ 4 20 км 8/0
[Ci fib]
+20.2 +1.6 29 +21 +27 комфорт 1021.7 1009.2
09 21.05 В 5 20 км 3/0
[Ci fib]
+22.7 +2.2 26 +22 +31 комфорт 1021.4 1009.0
12 21.05 В 4 20 км 8/0
[Ci fib]
+23.8 +0.8 22 +23 +29 комфорт 1020.4 1008.1
15 21.05 В 3 20 км 9/0
[Ci fib]
+22.8 +1.2 24 +22 +23 комфорт 1019.5 1007.1 +24.2
18 21.05 ЮВ 2 10 км 10/0
[Ci fib]
+14.5 +5.6 55 +14 +14 1020.2 1007.4
21 21.05 ЮВ 3 10 км 10/0
[Ci fib]
+14.6 +6.7 59 +14 +14 1020.0 1007.3
00 22.05 ЮВ 2 10 км 3/0
[Ci fib]
+11.9 +6.6 70 +11 +11 1019.8 1006.9
03 22.05 ЮВ 2 10 км 10/0
[Ci]
+13.0 +7.9 71 +12 +13 1019.6 1006.8 +10.6
06 22.05 ЮВ 6-12
{12}
10 км 9/0
[Ac trans Ci fib]
+18.5 +3.9 38 +18 +21 1018.1 1005.6
09 22.05 ЮВ 5-10
{13}
10 км 9/9
[Cb calv]
+21.8 +2.5 28 +22 +23 комфорт 1016.3 1003.9
12 22.05 Ю 4
{11}
10 км 10/0
[Ac trans Ci fib]
+24.3 +3.0 25 +24 +29 комфорт 1014.7 1002.4
15 22.05 Ю 2 10 км 9/6 600 м
[Sc Ac und Ci fib]
+22.5 +5.8 34 +23 +23 комфорт 1014.0 1001.7 +24.4
18 22.05 ЮВ 1 10 км 10/10 600 м
[Cb cap]
+16.9 +13.0 78 +18 +18 1014.4 1001.8
21 22.05 Ю 1 10 км 10/10 600 м
[Sc diur, vesp]
+15.1 +10.5 74 +16 +16 1013.8 1001.2
00 23.05 ЮВ 2 4000 м дымка 9/4 600 м
[Sc Ac As]
+12.3 +10.5 89 +11 +11 1013.2 1000.5
03 23.05 Ю 1 4000 м дымка {ливн. осадки} 4/3 600 м
[Sc Ac trans Ci fib]
+14.7 +13.4 92 +15 +16 1012.7 1000.0 +12.1 2
06 23.05 З 3 10 км {ливн. осадки} 8/3 600 м
[Cu med, cong Ac cuf Ci fib]
+20.3 +15.3 73 +23 +27 комфорт 1011.7 999.3
09 23.05 СЗ 5-10
{10}
10 км гроза без осадков 9/8 600 м
[Cb cap Ac cuf Ci fib]
+19.8 +12.1 61 +21 +23 комфорт 1010.9 998.5
12 23.05 СЗ 4-10
{10}
10 км гроза без осадков {ливн. осадки} 9/9 600 м
[Cb cap Ci fib]
+19.0 +12.5 66 +20 +21 1010.9 998.5
15 23.05 СЗ 2
{10}
10 км {гроза, ливн. осадки} 9/1 600 м
[Sc diur, vesp Ac trans Ci ing]
+18.5 +11.1 62 +19 +20 1010.1 997.7 +22.4 1
18 23.05 ЮЗ 1 10 км {гроза, ливн. осадки} 10/8 600 м
[Sc diur, vesp Ac cuf]
+16.2 +11.6 74 +17 +17 1011.0 998.5
21 23.05 ЮЗ 2 10 км в посл. час ливневой дождь 10/10 600 м
[Cb cap]
+14.8 +12.3 85 +14 +14 1010.8 998.3
00 24.05 ЮЗ 1
{11}
4000 м в посл. час ливневой дождь 9/6 600 м
[Cb cap Ac cuf Ci fib]
+14.0 +12.7 92 +14 +14 1010.5 997.9
03 24.05 З 2 4000 м дымка 9/3 600 м
[Sc Ac trans]
+15.3 +13.3 88 +15 +16 1010.1 997.6 +13.4 2
06 24.05 З 3 10 км 8/8 600 м
[Sc diur, vesp]
+19.9 +14.3 70 +22 +24 комфорт 1010.5 998.1
09 24.05 З 3 20 км 9/9 600 м
[Cb cap]
+23.4 +13.3 53 +27 +28 душно 1009.9 997.7
12 24.05 З 3 20 км 6/4 600 м
[Sc diur, vesp Ci fib]
+25.1 +11.3 42 +26 +32 жарко 1010.1 997.9
15 24.05 СЗ 2 20 км 9/3 600 м
[Sc diur, vesp Ci fib]
+24.1 +11.0 44 +25 +26 комфорт 1009.8 997.6 +25.7
18 24.05 СВ 1 10 км 9/0
[Ci fib]
+17.8 +13.5 76 +19 +19 1010.9 998.5
21 24.05 ЮВ 1 4000 м дымка 4/0
[Ci fib]
+14.6 +12.8 89 +15 +15 1011.3 998.7
00 25.05 ЮВ 2 4000 м дымка 9/0
[Ac lent Ci]
+12.6 +11.2 91 +12 +12 1011.5 998.8
03 25.05 Ю 1 4000 м дымка 10/0
[Ci]
+14.3 +12.3 88 +15 +16 1011.4 998.8 +12.5
06 25.05 ЮВ 4 10 км 3/0
[Ci fib]
+24.5 +12.4 47 +26 +33 жарко 1010.5 998.3
09 25.05 ЮВ 5
{10}
10 км 8/3 300 м
[Cu hum Ci]
+27.4 +10.1 34 +28 +34 жарко 1009.0 996.9
12 25.05 ЮВ 6-12
{12}
10 км 10/3 600 м
[Sc diur, vesp Cc]
+28.2 +9.5 31 +28 +31 жарко 1006.7 994.7
15 25.05 В 2
{20}
10 км в посл. час ливневой дождь 9/9 600 м
[Cb cap Ci fib]
+19.2 +15.9 81 +21 +22 комфорт 1007.3 995.0 +28.8 3
18 25.05 ЮЗ 4 10 км зарница {ливн. осадки} 9/9 600 м
[Cb cap Ci fib]
+18.7 +13.0 69 +19 +19 1009.6 997.2
21 25.05 ЮЗ 3
{13}
10 км {ливн. осадки} 3/0
[Ci fib]
+16.1 +14.3 89 +16 +16 1010.7 998.1
00 26.05 З 2 10 км {ливн. осадки} 3/0
[Ci fib]
+14.5 +12.4 87 +14 +14 1010.8 998.2
03 26.05 З 3 10 км 3/1 600 м
[Sc Ci fib]
+16.4 +12.9 80 +16 +17 1011.2 998.7 +14.4 3
06 26.05 ЮЗ 5
{11}
10 км 6/6 600 м
[Cu med, cong]
+19.7 +13.8 69 +21 +24 комфорт 1012.0 999.6
09 26.05 ЮЗ 5-11
{11}
10 км 8/8 300 м
[Cu med, cong]
+23.1 +13.5 55 +26 +28 жарко 1011.8 999.5
12 26.05 ЮЗ 4
{11}
10 км 9/9 300 м
[Cb cap]
+24.1 +12.1 47 +26 +27 жарко 1011.6 999.4
15 26.05 ЮЗ 2
{11}
10 км в посл. час ливневой дождь 9/6 300 м
[Cb cap Ac cuf Ci fib]
+19.6 +14.8 74 +22 +23 комфорт 1011.8 999.4 +24.3 1

 

Местоположение метеостанции Ремонтное (Ростовская область, Россия): широта 46.57 долгота 43.67 высота над уровнем моря 106 м.

В архиве по умолчанию представлена погода в Ремонтном за последнюю неделю. Архивные данные за месяц целиком и за предыдущие месяцы, начиная с января 2011 года, Вы можете получить, выбрав интересующий диапазон дат из раскрывающегося списка и нажав кнопку "Ввод!".


*Определитесь, кто Вы:
робот инопланетянин человек

Внимание! Время в таблицах - всемирное. Для получения местного времени необходимо прибавить поправку, которая равна 3 ч.

Смотрите также архив погоды в соседних городах и на ближайших метеорологических станциях:

Погода в Элисте (Калмыкия, Россия) (55 км)
Погода в Дивном (Ставропольский край, Россия) (76 км)
Погода в Кетченерах (Калмыкия, Россия) (108 км)
Погода в Зимовниках (Ростовская область, Россия) (111 км)
Погода в Ики-Буруле (Калмыкия, Россия) (113 км)
Погода в Котельниково (Волгоградская область, Россия) (124 км)
Погода в Яшкуле (Калмыкия, Россия) (136 км)
Погода в Арзгире (Ставропольский край, Россия) (136 км)
Погода в Городовиковске (Калмыкия, Россия) (142 км)
Погода в Светлограде (Ставропольский край, Россия) (150 км)

Пояснения к столбцам:

Ветер - указаны скорость ветра в м/с - средняя за 10 мин, порывы в срок и между сроками (в фигурных скобках) и направление, откуда дует ветер: С - северный, СВ - северо-восточный, В - восточный, ЮВ - юго-восточный, Ю - южный, ЮЗ - юго-западный, З - западный, СЗ - северо-западный.
Видимость - горизонтальная дальность видимости в метрах или километрах. При видимости от 1 до 10 км при отсутствии осадков обычно наблюдается дымка, при ухудшении видимости до 1 км и менее - туман. В сухую погоду видимость может ухудшаться дымом, пылью или мглою.
Явления - указаны атмосферные явления, наблюдавшиеся в срок или в последний час перед сроком; фигурными скобками обозначены явления, наблюдавшиеся между сроками (за 1-3 часа до срока); квадратными скобками обозначены град или гололедные отложения с указанием их диаметра в мм.
Облачность - указаны через наклонную черту общая и нижняя облачность в баллах и высота нижней границы облаков в метрах; квадратными скобками обозначены формы облаков: Ci - перистые, Cs - перисто-слоистые, Cc - перисто-кучевые, Ac - высококучевые, As - высокослоистые, Sc - слоисто-кучевые, Ns - слоисто-дождевые, Cu - кучевые, Cb - кучево-дождевые. Подробнее классификацию облаков см. в Атласе облаков (PDF).
T - Температура воздуха - температура, измеренная на высоте 2 м над землей.
Td - Температура точки росы - температура, при понижении до которой содержащийся в воздухе водяной пар достигнет насыщения.
f - Относительная влажность воздуха - влажноcть воздуха, измеренная на высоте 2 м над землей.
Te - Эффективная температура - температура, которую ощущает одетый по сезону человек в тени. Характеристика душности погоды. При расчете учитывается влияние влажности воздуха и скорости ветра на теплоощущения человека.
Tes - Эффективная температура на солнце - температура, которую ощущает человек, с поправкой на солнечный нагрев. Характеристика знойности погоды. Зависит от высоты солнца над горизонтом, облачности и скорости ветра. Ночью, в пасмурную погоду, а также при ветре 12 м/с и более поправка равна нулю.
P - Атмосферное давление - приведенное к уровню моря атмосферное давление.
Po - Атмосферное давление - измеренное на уровне метеостанции атмосферное давление.
Tmin - Минимальная температура - минимум температуры воздуха на высоте 2 м над землей.
Tmax - Максимальная температура - максимум температуры воздуха на высоте 2 м над землей.
R - Количество осадков - Количество выпавших осадков за период времени, мм. При наведении курсора мыши на число - период времени, за который выпало указанное количество осадков.
R24 - Количество осадков - Количество выпавших осадков за 24 часа, мм.
S - Снежный покров - Высота снежного покрова, см. При наведении курсора мыши на число - состояние снежного покрова и степень покрытия местности в баллах.